OBJECT U, 59071

Orbit data source: Space-Track

You're viewing an Uncataloged Satellite

Recently launched and/or uncataloged satellites may have evolving metadata. Metadata may include but not limited to: Owner, Maufacturer, Bus, Motor, and Mission.

OBJECT U, 59071 is a satellite in LEO that was launched on Thu, 29 Feb 2024 UTC via a SOYUZ-2-1B launch vehicle from the Vostochny Cosmodrome (VOSTO). Unknown objects in Earth's orbit typically refer to objects detected orbiting the Earth but have not yet been identified or cataloged. These objects could be anything from previously untracked satellites, spent rocket stages, debris from satellite collisions, or even natural meteoroids temporarily captured by Earth's gravity.

Loading next visibility...
Identifier
59071, 2024-039U
Orbit
LEO
Country
Flag of TBDTBD
Related business
Manufacturer
Sputniks
Mission
Operational Commercial Communications
Bus & Motor
CUBESAT 3U?, Unknown motor
Mass
3 kg wet, 3 kg dry
Launch date (UTC)
2024-02-29 (2 years ago)
Launch vehicle
SOYUZ-2-1B
Launch site
Vostochny Cosmodrome (VOSTO)
Object type
Unknown
Shape & HBR
Box, 0.1 m
Radar Cross Section
0.035 m², Small (<0.1 m²)

Expand to show TLE details & history
Last TLE update: 8 hours ago

TLE from 8 hours ago
0 OBJECT U
1 59071U 24039U   26124.17556819  .00006634  00000-0  51267-3 0  9990
2 59071  95.3927 205.0577 0146909 120.6894 240.8904 14.93436619118175
Epoch: 2026-05-04T04:12Z
TLE epoch observation values (Epoch: 2026-05-04T04:12:49.091Z)
Latitude
0.00004°
Longitude
-80.21538°
Altitude
641.262 km
Speed
7.51 km/s
True Right ascension
13h 40m 13s
True Declination
0° 00' 00"
Sunlit
Object was in full shadow at epoch
Visualization orbit readout
Latitude
Unknown
Longitude
Unknown
Altitude
Unknown
Speed
Unknown
Apparent Right ascension
Unknown
Apparent Declination
Unknown
Sunlit
N/A
Visualization observer readout
Local Sidereal Time
19:40:26
Azimuth
Unknown
Elevation
Unknown
Doppler factor
Unknown
Orbital elements
Apogee altitude
686.439 km
Perigee altitude
481.874 km
Semi-major axis
6,962.293 km
Eccentricity
0.01469
Inclination
95.3927°
RAAN
205.0577°
Arg. of periapsis
120.6894°
True anomaly
239.43277°
Mean anomaly
240.8904°
Eccentric anomaly
240.16027°
Mean motion
3.73607 °/min
Orbital period
96.36 mins
BSTAR
0.00051267
Loading maneuver chart data...
Computing Atmospheric mass density...
Loading historical data...
Loading historical data...
Loading historical data...
Loading historical data...
Loading historical data...
Loading historical data...
Loading historical data...

Documentation

Showing up to 5 results
|